Tracking 18852 objects as of 24-Nov-2017
HD Live streaming from Space Station
objects crossing your sky now

WESTFORD NEEDLES

Track WESTFORD NEEDLES now!
10-day predictions
WESTFORD NEEDLES is classified as:


NORAD ID: 18962
Int'l Code: 1963-014DN
Perigee: 2,820.5 km
Apogee: 4,363.1 km
Inclination: 87.0 °
Period: 164.9 minutes
Semi major axis: 9962 km
RCS: 0.1049 m2 (medium)
Launch date: May 9, 1963
Source: United States (US)
Launch site: AIR FORCE WESTERN TEST RANGE (AFWTR)
aabbcc
Your satellite tracking list
Your tracking list is empty




NASA's NSSDC Master Catalog

Two Line Element Set (TLE):
1 18962U 63014DN  17327.12573674 -.00000037  00000-0 -13636-1 0  9997
2 18962  87.0133 193.6016 0774216  96.2987  55.4000  8.73031991953589
Source of the keplerian elements: AFSPC